DW1231 Weather Reports


Display with metric or nautical units.
time (UTC)temp
F
wind
direction
speed
MPH
gust
MPH
rain 1hr
in
rain 24hr
in
rain mn
in
humidity
%
barometer
mb
20260831103040 79 166 2.0 2.0 0.00 0.00 0.00 63 1016.6
20260831102040 80 131 2.0 3.0 0.00 0.00 0.00 61 1016.7
20260831101040 80 141 1.0 2.0 0.00 0.00 0.00 60 1016.5
20260831100040 80 138 4.0 4.0 0.00 0.00 0.00 59 1016.6
20260831095040 80 128 3.0 3.0 0.00 0.00 0.00 59 1016.6
20260831094040 80 166 2.0 2.0 0.00 0.00 0.00 59 1016.4
20260831093040 80 120 4.0 4.0 0.00 0.00 0.00 60 1016.4
20260831092040 82 157 3.0 3.0 0.00 0.00 0.00 55 1016.2
20260831091040 83 190 3.0 4.0 0.00 0.00 0.00 53 1016.2
20260831090040 83 200 4.0 4.0 0.00 0.00 0.00 53 1016.2
20260831085041 83 186 2.0 2.0 0.00 0.00 0.00 53 1016.1
20260831084040 83 201 3.0 3.0 0.00 0.00 0.00 52 1016.0
20260831083040 83 185 2.0 2.0 0.00 0.00 0.00 52 1015.9
20260831082040 83 204 3.0 3.0 0.00 0.00 0.00 52 1016.0
20260831081040 82 206 4.0 6.0 0.00 0.00 0.00 53 1016.0
20260831080100 81 169 2.0 3.0 0.00 0.00 0.00 55 1015.9
20260831075040 80 186 3.0 3.0 0.00 0.00 0.00 59 1015.9
20260831074040 80 179 1.0 1.0 0.00 0.00 0.00 58 1015.6
20260831073040 81 172 1.0 1.0 0.00 0.00 0.00 57 1015.7
20260831072040 81 174 2.0 2.0 0.00 0.00 0.00 57 1015.6
20260831071040 81 197 2.0 2.0 0.00 0.00 0.00 57 1015.7
20260831070041 81 165 2.0 2.0 0.00 0.00 0.00 56 1015.5
20260831065040 81 170 2.0 2.0 0.00 0.00 0.00 56 1015.9
20260831064040 82 182 1.0 1.0 0.00 0.00 0.00 55 1016.0
20260831063040 82 184 2.0 2.0 0.00 0.00 0.00 55 1015.9
20260831062040 82 168 1.0 2.0 0.00 0.00 0.00 55 1015.9
20260831061039 82 183 2.0 2.0 0.00 0.00 0.00 54 1015.9
20260831060040 82 171 2.0 2.0 0.00 0.00 0.00 54 1016.0
20260831055040 83 182 2.0 2.0 0.00 0.00 0.00 54 1016.1
20260831054041 83 174 2.0 2.0 0.00 0.00 0.00 53 1016.0
20260831053041 83 174 1.0 1.0 0.00 0.00 0.00 53 1016.0
20260831052041 84 169 2.0 2.0 0.00 0.00 0.00 52 1015.9
20260831051040 84 179 2.0 2.0 0.00 0.00 0.00 51 1015.7
20260831050041 84 171 2.0 2.0 0.00 0.00 0.00 51 1015.7
20260831045040 84 158 1.0 1.0 0.00 0.00 0.00 49 1015.6
20260831044040 84 168 1.0 1.0 0.00 0.00 0.00 49 1015.6
20260831043040 85 172 1.0 1.0 0.00 0.00 0.00 48 1015.7
20260831042040 84 183 1.0 1.0 0.00 0.00 0.00 49 1015.8
20260831041041 85 168 1.0 1.0 0.00 0.00 0.00 47 1015.6
20260831040041 86 168 1.0 1.0 0.00 0.00 0.00 46 1015.7
20260831035040 86 0.0 0.0 0.00 0.00 0.00 46 1015.7
20260831034040 86 168 1.0 1.0 0.00 0.00 0.00 45 1015.4
20260831033040 86 152 1.0 1.0 0.00 0.00 0.00 45 1015.5
20260831032040 87 164 1.0 1.0 0.00 0.00 0.00 44 1015.4
20260831031041 87 165 2.0 2.0 0.00 0.00 0.00 43 1015.4
20260831030101 88 176 2.0 2.0 0.00 0.00 0.00 43 1015.4
20260831025041 88 171 1.0 1.0 0.00 0.00 0.00 42 1015.3
20260831024041 88 161 1.0 1.0 0.00 0.00 0.00 41 1015.2
20260831023040 89 172 2.0 2.0 0.00 0.00 0.00 40 1015.1
20260831022041 89 184 1.0 1.0 0.00 0.00 0.00 39 1014.9
20260831021041 90 171 1.0 1.0 0.00 0.00 0.00 39 1014.7
20260831020041 90 149 3.0 4.0 0.00 0.00 0.00 38 1014.7
20260831015041 90 155 2.0 3.0 0.00 0.00 0.00 37 1014.6
20260831014041 91 175 1.0 1.0 0.00 0.00 0.00 37 1014.5
20260831013040 91 173 2.0 2.0 0.00 0.00 0.00 36 1014.5
20260831012040 92 168 1.0 1.0 0.00 0.00 0.00 36 1014.5
20260831011040 93 167 2.0 2.0 0.00 0.00 0.00 35 1014.3
20260831010041 93 167 2.0 2.0 0.00 0.00 0.00 34 1014.0
20260831005041 94 171 2.0 2.0 0.00 0.00 0.00 33 1014.1
20260831004040 95 183 1.0 1.0 0.00 0.00 0.00 32 1014.1
20260831003040 96 160 1.0 2.0 0.00 0.00 0.00 32 1014.0
20260831002040 97 154 5.0 9.0 0.00 0.00 0.00 31 1014.2
20260831001121 97 169 2.0 3.0 0.00 0.00 0.00 31 1014.0
20260831000041 98 172 5.0 7.0 0.00 0.00 0.00 30 1014.1
20260830235041 98 149 4.0 6.0 0.00 0.00 0.00 30 1014.2
20260830234041 98 183 9.0 10.0 0.00 0.00 0.00 30 1014.2
20260830233041 99 169 2.0 4.0 0.00 0.00 0.00 29 1014.4
20260830232040 100 167 4.0 6.0 0.00 0.00 0.00 27 1014.4
20260830231040 100 185 2.0 2.0 0.00 0.00 0.00 27 1014.5
20260830230041 100 214 5.0 7.0 0.00 0.00 0.00 27 1014.5
20260830225041 100 168 5.0 6.0 0.00 0.00 0.00 27 1014.3
20260830224041 100 149 8.0 10.0 0.00 0.00 0.00 27 1014.5
20260830223040 101 165 5.0 7.0 0.00 0.00 0.00 26 1014.6
20260830222041 101 214 2.0 2.0 0.00 0.00 0.00 26 1014.4
20260830221040 101 209 5.0 7.0 0.00 0.00 0.00 26 1014.5
20260830220041 101 128 9.0 9.0 0.00 0.00 0.00 25 1014.4
20260830215041 101 123 3.0 7.0 0.00 0.00 0.00 25 1014.5
20260830214041 101 212 4.0 6.0 0.00 0.00 0.00 25 1014.6
20260830213041 100 203 2.0 3.0 0.00 0.00 0.00 27 1014.6
20260830212040 100 120 9.0 11.0 0.00 0.00 0.00 27 1015.1
20260830211040 98 177 7.0 8.0 0.00 0.00 0.00 28 1014.9
20260830210041 99 158 10.0 13.0 0.00 0.00 0.00 28 1015.0
20260830205101 98 154 11.0 11.0 0.00 0.00 0.00 29 1015.0
20260830204041 100 198 2.0 3.0 0.00 0.00 0.00 29 1015.4
20260830203041 98 146 15.0 17.0 0.00 0.00 0.00 29 1015.4
20260830202040 99 191 11.0 14.0 0.00 0.00 0.00 31 1015.4
20260830201041 99 134 9.0 10.0 0.00 0.00 0.00 31 1015.7
20260830195041 98 122 12.0 14.0 0.00 0.00 0.00 33 1016.1
20260830194101 99 172 6.0 7.0 0.00 0.00 0.00 32 1016.3
20260830193101 100 153 7.0 8.0 0.00 0.00 0.00 33 1016.1
20260830192040 101 208 3.0 7.0 0.00 0.00 0.00 31 1016.4
20260830191040 100 119 7.0 9.0 0.00 0.00 0.00 30 1016.5
20260830190040 99 180 11.0 13.0 0.00 0.00 0.00 31 1016.8
20260830185041 99 171 7.0 10.0 0.00 0.00 0.00 32 1016.7
20260830184041 98 187 4.0 6.0 0.00 0.00 0.00 33 1016.8
20260830183041 98 161 8.0 10.0 0.00 0.00 0.00 35 1016.9
20260830182040 98 127 5.0 8.0 0.00 0.00 0.00 35 1017.0
20260830181040 97 191 8.0 10.0 0.00 0.00 0.00 35 1017.3
20260830180040 98 188 4.0 6.0 0.00 0.00 0.00 36 1017.4
20260830175041 97 107 5.0 7.0 0.00 0.00 0.00 36 1017.6
20260830174100 97 178 7.0 10.0 0.00 0.00 0.00 37 1017.6
20260830173100 96 192 3.0 4.0 0.00 0.00 0.00 39 1017.9
20260830172121 96 178 6.0 8.0 0.00 0.00 0.00 38 1018.0
20260830171039 96 166 7.0 10.0 0.00 0.00 0.00 38 1018.0
20260830170041 95 210 4.0 10.0 0.00 0.00 0.00 40 1018.3
20260830165040 95 177 7.0 9.0 0.00 0.00 0.00 41 1018.5
20260830164040 94 224 5.0 8.0 0.00 0.00 0.00 41 1018.4
20260830163041 94 215 7.0 9.0 0.00 0.00 0.00 41 1018.5
20260830162041 93 193 3.0 4.0 0.00 0.00 0.00 43 1018.5
20260830161040 93 168 3.0 4.0 0.00 0.00 0.00 42 1018.5
20260830160041 93 192 7.0 8.0 0.00 0.00 0.00 44 1018.4
20260830155041 92 188 7.0 11.0 0.00 0.00 0.00 47 1018.5
20260830154040 92 189 7.0 9.0 0.00 0.00 0.00 47 1018.5
20260830153040 91 176 2.0 4.0 0.00 0.00 0.00 48 1018.5
20260830152040 90 178 3.0 4.0 0.00 0.00 0.00 50 1018.6
20260830151040 90 175 4.0 6.0 0.00 0.00 0.00 51 1018.7
20260830150041 89 180 4.0 4.0 0.00 0.00 0.00 52 1018.5
20260830145041 88 203 5.0 6.0 0.00 0.00 0.00 53 1018.5
20260830144040 87 118 4.0 4.0 0.00 0.00 0.00 53 1018.5
20260830143041 87 212 3.0 4.0 0.00 0.00 0.00 54 1018.7
20260830142041 86 163 4.0 4.0 0.00 0.00 0.00 56 1018.6
20260830141040 85 170 5.0 6.0 0.00 0.00 0.00 58 1018.8
20260830140040 85 151 2.0 3.0 0.00 0.00 0.00 60 1018.6
20260830135040 84 156 4.0 6.0 0.00 0.00 0.00 61 1018.5
20260830134040 83 195 3.0 4.0 0.00 0.00 0.00 62 1018.6
20260830133041 83 178 4.0 4.0 0.00 0.00 0.00 62 1018.5
20260830132041 82 150 5.0 6.0 0.00 0.00 0.00 63 1018.3
20260830131040 81 169 2.0 3.0 0.00 0.00 0.00 65 1018.4
20260830130040 80 171 2.0 2.0 0.00 0.00 0.00 66 1018.2
20260830125040 79 157 2.0 2.0 0.00 0.00 0.00 67 1018.1
20260830124040 78 142 4.0 4.0 0.00 0.00 0.00 68 1017.9
20260830123041 77 152 3.0 3.0 0.00 0.00 0.00 68 1017.9
20260830122040 77 155 2.0 2.0 0.00 0.00 0.00 68 1017.6
20260830121041 76 169 2.0 2.0 0.00 0.00 0.00 68 1017.5
20260830120041 76 172 1.0 1.0 0.00 0.00 0.00 67 1017.3
20260830115101 77 171 1.0 1.0 0.00 0.00 0.00 66 1017.4
20260830114040 77 157 1.0 2.0 0.00 0.00 0.00 64 1017.0
20260830113040 77 174 1.0 1.0 0.00 0.00 0.00 63 1017.0
20260830112041 78 166 1.0 1.0 0.00 0.00 0.00 62 1016.9
20260830111040 78 163 1.0 1.0 0.00 0.00 0.00 61 1016.8
20260830110041 78 163 1.0 2.0 0.00 0.00 0.00 60 1016.8
20260830105041 78 170 1.0 1.0 0.00 0.00 0.00 61 1016.6
20260830104040 79 156 2.0 2.0 0.00 0.00 0.00 59 1016.7